This is the latest recevied weather packets stored in our database for station/object W3TMB. If no packets are shown the sender has not sent any weather packets the latest 10 day(s).
| Time | Temp. | Humidity | Pressure | Rain* | Wind** | Luminosity | Snow |
|---|---|---|---|---|---|---|---|
| 1777706949 | 5.56° C | 95% | 1011.1 hPa | 0 mm | - | 0 W/m² | - |
| 1777706646 | 5.56° C | 94% | 1011.2 hPa | 0 mm | - | 0 W/m² | - |
| 1777706343 | 6.11° C | 92% | 1011.2 hPa | 0 mm | - | 0 W/m² | - |
| 1777706041 | 6.11° C | 90% | 1011.1 hPa | 0 mm | - | 0 W/m² | - |
| 1777705739 | 5.56° C | 90% | 1011.2 hPa | 0 mm | - | 0 W/m² | - |
| 1777705436 | 6.11° C | 90% | 1011.2 hPa | 0 mm | - | 0 W/m² | - |
| 1777705135 | 6.11° C | 88% | 1011.1 hPa | 0 mm | - | 0 W/m² | - |
| 1777704833 | 6.11° C | 87% | 1011.1 hPa | 0 mm | - | 0 W/m² | - |
| 1777704530 | 6.11° C | 89% | 1011.2 hPa | 0 mm | - | 0 W/m² | - |
| 1777704228 | 6.11° C | 90% | 1011.2 hPa | 0 mm | - | 0 W/m² | - |
| 1777703925 | 6.11° C | 89% | 1011.3 hPa | 0 mm | - | 0 W/m² | - |
| 1777703623 | 5.56° C | 89% | 1011.3 hPa | 0 mm | - | 0 W/m² | - |
| 1777703320 | 6.11° C | 92% | 1011.2 hPa | 0 mm | - | 0 W/m² | - |
| 1777703017 | 6.11° C | 91% | 1011.3 hPa | 0 mm | - | 0 W/m² | - |
| 1777702716 | 6.11° C | 89% | 1011.2 hPa | 0 mm | - | 0 W/m² | - |
| 1777702413 | 6.11° C | 90% | 1011.2 hPa | 0 mm | - | 0 W/m² | - |
| 1777702109 | 6.67° C | 90% | 1011.2 hPa | 0 mm | - | 0 W/m² | - |
| 1777701804 | 6.11° C | 90% | 1011.1 hPa | 0 mm | - | 0 W/m² | - |
| 1777701502 | 6.67° C | 91% | 1011 hPa | 0 mm | - | 0 W/m² | - |
| 1777701200 | 6.67° C | 91% | 1011.3 hPa | 0 mm | - | 0 W/m² | - |
| 1777700900 | 6.67° C | 93% | 1011.1 hPa | 0 mm | - | 0 W/m² | - |
| 1777700597 | 6.67° C | 94% | 1011.2 hPa | 0 mm | - | 0 W/m² | - |
| 1777700294 | 6.67° C | 92% | 1011.1 hPa | 0 mm | - | 0 W/m² | - |
| 1777699991 | 6.67° C | 93% | 1011.1 hPa | 1.78 mm | - | 0 W/m² | - |
| 1777699689 | 6.67° C | 92% | 1010.9 hPa | 1.78 mm | - | 0 W/m² | - |
* Rain latest hour (hover to see other rain measurements)
** Current wind speed in m/s (hover to see current wind gust speed)